THOR ABLESTAR DEB

Satellite information

Favourite Embed

Satellite Type and Status

DEBRISIN ORBIT

Key statistics

Satellite THOR ABLESTAR DEB at a glance.

Uptime

23497

Days in orbit

Revolutions

≈ 13.8

Per day

Orbit

LEO

Low Earth Orbit

Inclination

66.7

Latest

Satellite identification and parameters

Extended collection of information and parameters for THOR ABLESTAR DEB.

Object identification

Identified? True

Debris? True

Object name: THOR ABLESTAR DEB

International designator: 1961-015JK

Object number (NORAD): 4005

Object ID (CCSDS): 4005

Country: UNITED STATES OF AMERICA (US)

Current information (Y/N): Y

RCS size: SMALL

Orbital parameters

Period: 104.486 minutes

Inclination: 66.749 deg

SMA: 7348.505 km

Apoapsis: 1032.559 km

Periapsis: 908.182 km

RAAN: 221.1682 deg

Eccentricy: 0.0084627

Argument of periapsis: 84.5391 deg

Mean anomaly: 72.8426 deg

Mean motion: 13.78174588 rev/day

Mean motion (dot): 0.00000778 rev/day2

B* drag term: 0.00082325 1/REarth

Two-line elements (TLE)

Creation date: Oct. 27, 2025, 2:36 p.m.

Reference frame: TEME

Reference center: EARTH

Epoch: Oct. 27, 2025, 6:14 a.m. UTC

TLE line 0: 0 THOR ABLESTAR DEB

TLE line 1: 1 4005U 61015JK 25300.25996060 .00000778 00000-0 82325-3 0 9994

TLE line 2: 2 4005 66.7490 221.1682 0084627 84.5391 72.8426 13.78174588855696

Live tracking on map

Real-time ground track for satellite THOR ABLESTAR DEB.

In-orbit conjunctions

A list of the most updated potential collisions computed for object THOR ABLESTAR DEB.

Target Orbit TCA Probability of collision Miss distance Type
SL-8 R/B LEO 2024-10-21 06:34:05 0.0002439865 74.0 (m) ROCKET BODY
COSMOS 1275 DEB LEO 2024-10-04 02:30:03 0.0001210489 212.0 (m) DEBRIS

Associated space launch

THOR ABLESTAR DEB was lifted into orbit during the mission ‘Thor DM-21 Ablestar | Transit 4A & Injun-1 & Solrad 3’, on board a Thor DM-21 Ablestar space rocket.

The launch took place on June 29, 1961, 4:23 a.m. from Space Launch Complex 17B.

For more information about the launch, click the button.

Launch to space Thor DM-21 Ablestar | Transit 4A & Injun-1 & Solrad 3
Thor DM-21 Ablestar | Transit 4A & Injun-1 & Solrad 3

Agency: N/A

Status: Launch Successful

Launch date: June 29, 1961, 4:23 a.m. UTC

Rocket: Thor DM-21 Ablestar

Launch pad: Space Launch Complex 17B

Location: Cape Canaveral SFS, FL, USA

...

Latest news about this satellite

There are no fresh news available about this satellite. Check back as we update our databases every day.


Newsletter sign-up

Weekly statistics, charts and insights to help you stay on top of the space industry.